Alexandria Esle, LA

11:14 PM CDT on June 28, 2017 (GMT -0500)
Alexandria Esler Regional

Weather History for KESF - June, 2013

Change the Weather History Date:

Monday, June 17, 2013

  Actual Average Record
Temperature  
Mean Temperature 86 °F -  
Max Temperature 93 °F 90 °F 100 °F (2011)
Min Temperature 78 °F 69 °F 56 °F (1969)
Cooling Degree Days 22    
Growing Degree Days 36 (Base 50)    
Moisture  
Dew Point 73 °F    
Average Humidity 65    
Maximum Humidity 87    
Minimum Humidity 44    
Precipitation  
Precipitation 0.00 in - - ()
Sea Level Pressure  
Sea Level Pressure 29.95 in    
Wind  
Wind Speed 8 mph (SSW)    
Max Wind Speed 12 mph    
Max Gust Speed 20 mph    
Visibility 10 miles    
Events      
Averages and records for this station are not official NWS values.
T = Trace of Precipitation, MM = Missing Value Source: NWS Daily Summary

Daily Weather History Graph

Daily Weather History Graph

Search for Another Location

Airport or City:

Trip Planner

Search our weather history database for the weather conditions in past years. The results will help you decide how hot, cold, wet, or windy it might be!

Date:

Astronomy

Jun. 17, 2013 Rise Set
Actual Time 6:04 AM CDT 8:15 PM CDT
Civil Twilight 5:36 AM CDT 8:43 PM CDT
Nautical Twilight 5:02 AM CDT 9:18 PM CDT
Astronomical Twilight 4:25 AM CDT 9:55 PM CDT
Moon 2:13 PM CDT (6/17) 1:19 AM CDT (6/17)
Length of Visible Light 15h 07m
Length of Day
14h 11m
First Quarter, 60% of the Moon is Illuminated
Jun 17
First Quarter
Jun 23
Full
Jun 29
Last Quarter
Jul 8
New
Jul 15
First Quarter

Hourly Weather History & Observations

Time (CDT) Temp. Heat Index Dew Point Humidity Pressure Visibility Wind Dir Wind Speed Gust Speed Precip Events Conditions
12:53 AM - - - N/A% 29.98 in - North - - N/A   Unknown
1:53 AM - - - N/A% 29.99 in - North - - N/A   Unknown
2:53 AM - - - N/A% 29.98 in - North - - N/A   Unknown
3:53 AM - - - N/A% 29.96 in - North - - N/A   Unknown
4:53 AM - - - N/A% 29.96 in - North - - N/A   Unknown
5:53 AM - - - N/A% 29.96 in - North - - N/A   Unknown
6:53 AM - - - N/A% 29.98 in - North - - N/A   Unknown
7:53 AM - - - N/A% 29.99 in - North - - N/A   Unknown
8:53 AM - - - N/A% 29.98 in - North - - N/A   Unknown
9:53 AM 86.0 °F 93.0 °F 73.0 °F 65% 29.99 in 10.0 mi WSW 11.5 mph - N/A   Unknown
10:53 AM 88.0 °F 94.7 °F 72.0 °F 59% 30.01 in 10.0 mi WSW 11.5 mph 16.1 mph N/A   Clear
11:53 AM 90.0 °F 96.9 °F 72.0 °F 55% 30.01 in 10.0 mi WSW 10.4 mph - N/A   Partly Cloudy
12:53 PM 91.9 °F 98.4 °F 71.1 °F 50% 29.98 in 10.0 mi WSW 6.9 mph 19.6 mph N/A   Partly Cloudy
1:53 PM 93.0 °F 97.4 °F 68.0 °F 44% 29.95 in 10.0 mi West 11.5 mph - N/A   Clear
2:53 PM 91.9 °F 97.4 °F 70.0 °F 48% 29.92 in 10.0 mi SSW 8.1 mph - N/A   Scattered Clouds
3:53 PM 89.1 °F 98.0 °F 73.9 °F 61% 29.91 in 10.0 mi SSE 4.6 mph - N/A   Mostly Cloudy
4:53 PM 89.1 °F 98.0 °F 73.9 °F 61% 29.91 in 10.0 mi South 4.6 mph - N/A   Mostly Cloudy
5:53 PM 89.1 °F 99.1 °F 75.0 °F 63% 29.90 in 10.0 mi South 3.5 mph - N/A   Mostly Cloudy
6:53 PM 89.1 °F 99.1 °F 75.0 °F 63% 29.90 in 10.0 mi SSW 4.6 mph - N/A   Mostly Cloudy
7:53 PM 84.9 °F 95.3 °F 77.0 °F 77% 29.90 in 10.0 mi SSE 4.6 mph - N/A   Mostly Cloudy
8:53 PM 84.0 °F 92.6 °F 75.9 °F 76% 29.90 in 10.0 mi South 3.5 mph - N/A   Mostly Cloudy
9:53 PM 82.0 °F 88.6 °F 75.0 °F 79% 29.91 in 10.0 mi SSW 4.6 mph - N/A   Partly Cloudy
10:53 PM 80.1 °F 84.5 °F 73.9 °F 81% 29.91 in 10.0 mi Calm Calm - N/A   Clear
11:53 PM 78.1 °F - 73.9 °F 87% 29.92 in 10.0 mi Calm Calm - N/A   Clear